Location: Table Mountain
(47.2500°N, 120.5778°W)
Time: 18:15:15
(UTC-07:00)

ISS - Pass Details

Date: 11 October 2017
Orbit: 401 x 408 km, 51.6° (Epoch: 22 October)

Event Time Altitude Azimuth Distance (km) Brightness Sun altitude
Rises 20:31:12 0° 290° (WNW) 2,323 1.5 -22.7°
Reaches altitude 10° 20:33:27 10° 279° (W) 1,461 0.1 -23.1°
Enters shadow 20:35:56 27° 231° (SW) 819 -2.0 -23.5°
